Regional Weather Roundup
Issued by NWS

Home | Current Version | Previous Version | Graphics & Text | Print | Product List | Glossary On
Versions: 1 2 3 4 5 6 7 8 9 10 11 12 13 14 15 16 17 18 19 20 21 22 23 24 25 26 27 28 29 30 31 32 33 34 35 36 37 38 39 40 41 42 43 44 45 46 47 48 49 50
418
ASUS43 KDTX 032001
RWRMI
MICHIGAN HOURLY REGIONAL WEATHER ROUNDUP
NATIONAL WEATHER SERVICE DETROIT/PONTIAC MI
400 PM EDT TUE MAY 03 2016

NOTE: "FAIR" INDICATES FEW OR NO CLOUDS BELOW 12,000 FEET WITH NO
SIGNIFICANT WEATHER AND/OR OBSTRUCTION TO VISIBILITY.

MIZ047>049-052>055-059>063-066>070-074>076-081>083-032100-
SOUTHEAST LOWER MICHIGAN

CITY           SKY/WX    TMP DP  RH WIND       PRES   REMARKS
ADRIAN         SUNNY     62  34  35 NW7       29.84F
ALMA           PTSUNNY   65  35  32 SW15G23   29.79F
ANN ARBOR      CLOUDY    62  32  32 NW5       29.82F
BAD AXE        MOSUNNY   64  33  31 W8        29.78F
CARO           MOSUNNY   63  37  36 W8        29.78F
DETROIT CITY   MOSUNNY   62  44  51 S13       29.82F
DETROIT        PTSUNNY   60  44  55 S10       29.83F
FLINT          MOSUNNY   66  35  31 W12       29.81F
GROSSE ILE     PTSUNNY   55  48  76 S9        29.83F
HILLSDALE      PTSUNNY   61  26  27 W5        29.84F
HOWELL         MOSUNNY   62  33  33 CALM      29.82F

CITY           SKY/WX    TMP DP  RH WIND       PRES   REMARKS
JACKSON        PTSUNNY   63  35  35 W8G16     29.82F
LAMBERTVILLE   MOSUNNY   65  39  38 W9        29.85F
LANSING        CLOUDY    65  36  34 W12G17    29.82F
LAPEER         FAIR      65  31  28 W7        29.81F
MASON          PTSUNNY   63  36  37 SW5       29.82F
MONROE         CLOUDY    57  47  67 S13       29.84F
MT. CLEMENS    SUNNY     61  41  48 SE12      29.82F
PONTIAC        PTSUNNY   64  34  32 W9        29.81F
PORT HOPE        N/A     51  42  71 E20       29.76F
PORT HURON     CLOUDY    64  36  34 SW8       29.81F
TRI CITIES     MOSUNNY   68  35  29 SW15G22   29.77F
MIDLAND        CLOUDY    67  35  31 SW7       29.75F
TROY           CLOUDY    65  31  27 CALM      29.83F
SAGINAW HB     PTSUNNY   66  34  30 SW13      29.77F
$$
MIZ043>046-050>051-056>058-064>065-071>073-077>080-032100-
SOUTHWEST LOWER MICHIGAN

CITY           SKY/WX    TMP DP  RH WIND       PRES   REMARKS
BATTLE CREEK   MOSUNNY   64  34  32 W8        29.84F
BENTON HARBOR  SUNNY     63  33  32 SW12      29.86F
BIG RAPIDS     CLOUDY    64  28  25 W14G20    29.76F
COLDWATER      MOSUNNY   64  38  38 W9        29.84F
FREMONT        FAIR      63  32  31 SW14G23   29.80F
HOLLAND        SUNNY     63  36  36 SW16      29.84F
GRAND RAPIDS   MOSUNNY   66  38  35 W18       29.82F
IONIA          PTSUNNY   64  33  31 SW9G20    29.80F
KALAMAZOO      MOSUNNY   65  35  33 CALM      29.84F
LUDINGTON      SUNNY     60  40  47 SW14G23   29.77F
MARSHALL       CLOUDY    64  35  34 W9        29.82F
MOUNT PLEASANT SUNNY     68  36  31 W12       29.75F
MUSKEGON       MOSUNNY   59  36  42 SW18      29.82F
$$
MIZ016>042-032100-
NORTHERN LOWER MICHIGAN

CITY           SKY/WX    TMP DP  RH WIND       PRES   REMARKS
ALPENA         CLOUDY    66  31  27 SW13      29.69F
BEAVER ISLAND  CLOUDY    60  35  39 S17G26    29.67F
BELLAIRE       CLOUDY    66  31  27 SW10      29.70F
CADILLAC       MOSUNNY   65  32  29 W10G17    29.73F
CHARLEVOIX     CLOUDY    64  36  35 SW13      29.72F
FRANKFORT      CLOUDY    57  42  57 SW13G21   29.74F
GAYLORD        CLOUDY    64  29  26 W13G23    29.71F
HARBOR SPRINGS CLOUDY    58  36  45 SW3       29.69F
HOUGHTON LAKE  PTSUNNY   63  36  36 W8        29.73F
MANISTEE       PTSUNNY   64  36  34 SW13G22   29.75F
OSCODA         PTSUNNY   64  32  30 S18G24    29.73F
PELLSTON       CLOUDY    66  30  26 SW17G24   29.68F
ROGERS CITY    CLOUDY    61  33  34 NE5       29.69F
TRAVERSE CITY  CLOUDY    66  32  28 SW12G20   29.71F
$$
MIZ007>008-015-032100-
EASTERN UPPER MICHIGAN

CITY           SKY/WX    TMP DP  RH WIND       PRES   REMARKS
KINROSS          N/A     61  32  33 SW8       29.66F
MACKINAC ISLAN CLOUDY    57  33  40 CALM      29.67F
NEWBERRY       CLOUDY    56  38  50 SW9       29.66S
S. S. MARIE    CLOUDY    62  34  35 S8        29.65F
MUNISING         N/A     46  43  89 CALM      29.68S
$$
MIZ004>006-011>014-085-032100-
CENTRAL UPPER MICHIGAN

CITY           SKY/WX    TMP DP  RH WIND       PRES   REMARKS
MANISTIQUE     CLOUDY    48  40  73 S9        29.65F
ESCANABA       CLOUDY    64  36  34 W13       29.64S
$$
MIZ001>003-009>011-084-032100-
WESTERN UPPER MICHIGAN

CITY           SKY/WX    TMP DP  RH WIND       PRES   REMARKS
IRON MOUNTAIN  CLOUDY    60  38  43 NW10      29.66S
HOUGHTON       PTSUNNY   56  44  64 W15       29.63S
COPPER HARBOR    N/A     49  42  77 N22       29.62R
IRONWOOD         N/A     46  45  93 S8        29.66F
$$

ABBREVIATIONS USED IN REMARKS
   TC - TEMPERATURE IN CELSIUS
  WCI - WIND CHILL INDEX
   HX - HEAT INDEX
  VSB - VISIBILITY





USA.gov is the U.S. government's official web portal to all federal, state and local government web resources and services.